Regional Weather Roundup
Issued by NWS Green Bay, WI

Home | Current Version | Previous Version | Graphics & Text | Print | Product List | Glossary Off
Versions: 1 2 3 4 5 6 7 8 9 10 11 12 13 14 15 16 17 18 19 20 21 22 23 24 25 26 27 28 29 30 31 32 33 34 35 36 37 38 39 40 41 42 43 44 45 46 47 48 49 50

000
ASUS43 KGRB 190700
RWRGRB

NORTH-CENTRAL AND NORTHEAST WISCONSIN REGIONAL WEATHER ROUNDUP
NATIONAL WEATHER SERVICE GREEN BAY WI
200 AM CDT THU OCT 19 2017

WIZ005-009-010>012-018-019-190800-
NORTH CENTRAL WISCONSIN

CITY           SKY/WX    TMP DP  RH WIND       PRES   REMARKS
IRONWOOD       PTCLDY    49  19  30 W16       29.89S
MANITOWISH WTR NOT AVBL
ARBOR VITAE    NOT AVBL
EAGLE RIVER    NOT AVBL
LAND O LAKES   NOT AVBL
RHINELANDER    CLOUDY    48  21  34 W12       29.94R
PHILLIPS       NOT AVBL
ANTIGO         NOT AVBL
TOMAHAWK       NOT AVBL
MERRILL        NOT AVBL
$$

WIZ013-073-190800-
NORTHEAST WISCONSIN

CITY           SKY/WX    TMP DP  RH WIND       PRES   REMARKS
IRON MOUNTAIN  CLOUDY    54  19  25 W12       29.87R
MARINETTE      CLOUDY    57  35  43 VRB3      29.91R
$$

WIZ017-030-035>037-045-190800-
CENTRAL WISCONSIN

CITY           SKY/WX    TMP DP  RH WIND       PRES   REMARKS
MEDFORD        NOT AVBL
WAUSAU         PTCLDY    49  26  41 W9        29.95R
MOSINEE        NOT AVBL
MARSHFIELD     CLOUDY    46  26  45 W7        29.99R
WISC RAPIDS    CLOUDY    51  26  37 W6        30.01R
STEVENS POINT  NOT AVBL
WAUPACA        NOT AVBL
SHAWANO        NOT AVBL
CLINTONVILLE   NOT AVBL
WAUTOMA        CLOUDY    54  27  35 W8        30.01R
$$

WIZ038-039-048-051-190800-
FOX VALLEY

CITY           SKY/WX    TMP DP  RH WIND       PRES   REMARKS
NWS GREEN BAY  CLOUDY    56  35  45 W13       29.95R
APPLETON       NOT AVBL
OSHKOSH        CLOUDY    56  34  43 NW10      29.97R
FOND DU LAC    CLOUDY    56  41  57 W10       29.99R
$$

WIZ022-050-052-190800-
EAST CENTRAL WISCONSIN

CITY           SKY/WX    TMP DP  RH WIND       PRES   REMARKS
EPHRAIM        NOT AVBL
WASHINGTON ISL NOT AVBL
STURGEON BAY   CLOUDY    59  43  55 W14       29.91R
MANITOWOC      CLOUDY    59  46  62 W12       29.94R
SHEBOYGAN      PTCLDY    59  47  64 W13G20    29.95R
$$

LMZ563-521-522-541>543-190800-
LAKESHORE

STATION/POSITION TIME  TEMP    WIND        PRES    VSBY  WAVE
                       AIR SEA DIR/SP/G                  HT/PER
                 (UTC) (F)     (DEG/KT/KT) (MB)    (MI)  (FT/S)
SHEBOYGAN LKSHOR 0600   64     250/ 16/ 20 1012.8R
KEWAUNEE LKSHORE 0630   61     260/  9/ 14 1011.9R
NORTHPORT PIER   0640   60     280/  6/ 12 1011.2R
N MID LAKE BUOY  0550   60 58  210/ 16/ 21 1010.2R         9/ 8
S GREEN BAY BUOY 0600   61 58  240/ 14/ 17 1011.8
SISTER BAY LKSHO 0619   60     280/ 12/ 14   N/A
MENOMINEE LKSHOR 0630   59     260/  7/ 11 1011.5R
$$



USA.gov is the U.S. government's official web portal to all federal, state and local government web resources and services.